Regional Weather Roundup
Issued by NWS Charleston, SC

Current Version | Previous Version | Text Only | Print | Product List | Glossary Off
Versions: 1 2 3 4 5 6 7 8 9 10 11 12 13 14 15 16 17 18 19 20 21 22 23 24 25 26 27 28 29 30 31 32 33 34 35 36 37 38 39 40 41 42 43 44 45 46 47 48 49 50
000 ASUS42 KCHS 232325 RWRCHS REGIONAL WEATHER ROUNDUP NATIONAL WEATHER SERVICE CHARLESTON SC 700 PM EDT TUE SEP 23 2014 NOTE: "FAIR" INDICATES FEW OR NO CLOUDS BELOW 12,000 FEET WITH NO SIGNIFICANT WEATHER AND/OR OBSTRUCTIONS TO VISIBILITY. NOT ALL STATIONS ARE QUALITY CONTROLLED BY THE NATIONAL WEATHER SERVICE. USE DATA WITH CAUTION...ESPECIALLY DEWPOINT OBSERVATIONS. SCZ027-030-031-034>040-042>050-240000- ...SOUTH CAROLINA... CITY SKY/WX TMP DP RH WIND PRES REMARKS N CHARLESTON CLOUDY 63 59 87 N17 30.16R WATERFRONT PRK NOT AVBL FORT JOHNSON NOT AVBL MOUNT PLEASANT LGT RAIN 64 63 94 NE5 30.15R JOHNS ISLAND CLOUDY 63 63 100 N16 30.15R PINOPOLIS N/A 64 61 88 NE18G26 30.09F MONCKS CORNER N/A 63 61 94 N9G18 30.18S SUMMERVILLE CLOUDY 63 59 88 N14G20 30.18S BEAUFORT MCAS CLOUDY 67 61 81 N10 30.14R BEAUFORT ARPT CLOUDY 66 63 88 NE17 30.14R HILTON HEAD IS CLOUDY 68 64 88 N13G23 30.14R GEORGETOWN NOT AVBL WALTERBORO CLOUDY 64 64 100 N6 30.18R ORANGEBURG PTCLDY 67 53 61 NE14G20 30.19S BARNWELL CLOUDY 64 57 77 NE9 30.20S AIKEN CLOUDY 63 59 88 NE12G17 30.25S MANNING CLOUDY 63 59 88 N8G17 30.21R KINGSTREE NOT AVBL COLUMBIA PTCLDY 64 54 69 N10 30.23R SUMTER CLEAR 64 54 69 NE13 30.21R FLORENCE LGT RAIN 59 55 87 NE14 30.23S MYRTLE BEACH LGT RAIN 61 55 82 N17G24 30.19R FOG N MYRTLE BEACH LGT RAIN 61 58 90 N14G22 30.18S FOG $$ GAZ063-065-086>088-099>101-113>116-118-119-134-136>141-150-240000- ...GEORGIA... CITY SKY/WX TMP DP RH WIND PRES REMARKS SAVANNAH ARPT CLOUDY 70 63 78 N20G25 30.13R HUNTER AAF CLOUDY 71 64 79 NE12G17 30.10R FORT STEWART CLOUDY 72 64 78 N15G21 30.10S STATESBORO NOT AVBL SYLVANIA MOCLDY 71 66 84 NE9 30.17S CLAXTON MOCLDY 72 66 83 NE10G17 30.13S THOMSON CLOUDY 68 64 86 NE6 30.25R AUGUSTA-BUSH MOCLDY 67 58 72 NE15 30.20R AUGUSTA-DANIEL CLOUDY 68 58 70 NE12 30.21R SWAINSBORO CLOUDY 73 66 78 NE7 30.16R VIDALIA CLOUDY 72 64 78 NE16G22 30.13R ALMA PTCLDY 75 64 68 VRB3 30.09R WAYCROSS CLOUDY 79 68 69 E8 30.07S JESUP CLOUDY 77 68 73 NE7 30.09S BRUNSWICK CLEAR 73 64 73 NE15G21 30.08S SAINT SIMONS MOCLDY 72 68 87 NE21G28 30.06S $$ SCZ027-028-034-036>038-045-046-048>050-GAZ119-141-240000- ...LAKE AND SUPPLEMENTAL COASTAL OBSERVATIONS... STATION/POSITION TIME TEMP WIND PRES WAVE SWELL AIR SEA DIR/SP/G HT/PER HT/PER/DIR (UTC) (F) (DEG/KT/KT) (MB) (FT/S) (FT/S/D) UPR LAKE MARION NOT AVBL WINYAH BAY 2300 61 20/ 13 1021.0S LAKE MURRAY 2200 63 30/ 5/ 10 1023.4R ACE BASIN NERRS 2300 65 20/ 5 1021.0R FORT PULASKI 2300 69 10/ 16/ 22 1020.0R SAPELO ISLAND NOT AVBL $$ ANZ835-935-AMZ111-154-330-350-352-354-374-450-454-472-240000- ...C-MAN AND BUOY OBSERVATIONS... STATION/POSITION TIME TEMP WIND PRES WAVE SWELL AIR SEA DIR/SP/G HT/PER HT/PER/DIR (UTC) (F) (DEG/KT/KT) (MB) (FT/S) (FT/S/D) FOLLY BEACH CMAN 2300 63 350/ 15/ 17 1021.0R BUOY 41004 2300 72 81 10/ 25/ 31 1017.9R 9/ 8 2/16 BUOY 41008 2300 74 82 20/ 25/ 31 1017.1F 8/ 6 5E ST. MARYS GA 2300 82 N/A 6/ 6 FRYING PAN BUOY NOT AVBL BUOY 41025 2300 72 10/ 27/ 33 1019.8R 7/ 7 CAPE LOOKOUT NC 2300 67 10/ 19/ 22 1021.2S BUOY 41002 2156 78 80 120/ 12/ 12 1018.1F 3/ 7 3/110/ 7 BUOY 41010 2300 76 84 200/ 14/ 17 1016.2R 3/ 7 2/100/ 7 BUOY 41012 NOT AVBL ST AUGUSTINE FL 2300 77 20/ 20/ 23 1016.9S CAPERS NEARSHORE 2200 70 40/ 21/ 27 N/A FRIPP NEARSHORE NOT AVBL $$

USA.gov is the U.S. government's official web portal to all federal, state and local government web resources and services.